Merced, CA

12:37 PM PDT on July 27, 2016 (GMT -0700)
Castle

Weather History for KMER - October, 2013

Change the Weather History Date:

Monday, October 21, 2013

  Actual Average (KMCE) Record (KMCE)
Temperature  
Mean Temperature 65 °F 62 °F  
Max Temperature 86 °F 76 °F 94 °F (2003)
Min Temperature 44 °F 48 °F 41 °F (2007)
Degree Days  
Heating Degree Days 0    
Month to date heating degree days  
Since 1 July heating degree days  
Cooling Degree Days 0    
Month to date cooling degree days  
Year to date cooling degree days  
Growing Degree Days 15 (Base 50)    
Moisture  
Dew Point 41 °F    
Average Humidity 60    
Maximum Humidity 93    
Minimum Humidity 18    
Precipitation  
Precipitation 0.00 in 0.02 in 0.60 in (1985)
Month to date precipitation 0.36  
Year to date precipitation 9.35  
Snow  
Snow 0.00 in - - ()
Month to date snowfall  
Since 1 July snowfall  
Since 1 September snowfall  
Snow Depth -    
Sea Level Pressure  
Sea Level Pressure 29.94 in    
Wind  
Wind Speed 2 mph (NE)    
Max Wind Speed 7 mph    
Max Gust Speed -    
Visibility 9 miles    
Events      
T = Trace of Precipitation, MM = Missing Value Source: NWS Daily Summary

Daily Weather History Graph

Daily Weather History Graph

Search for Another Location

Airport or City:

Trip Planner

Search our weather history database for the weather conditions in past years. The results will help you decide how hot, cold, wet, or windy it might be!

Date:

Astronomy

Oct. 21, 2013 Rise Set
Actual Time 7:16 AM PDT 6:16 PM PDT
Civil Twilight 6:49 AM PDT 6:43 PM PDT
Nautical Twilight 6:19 AM PDT 7:13 PM PDT
Astronomical Twilight 5:49 AM PDT 7:43 PM PDT
Moon 8:16 PM PDT (10/21) 9:53 AM PDT (10/21)
Length of Visible Light 11h 53m
Length of Day
11h 00m
Waning Gibbous, 92% of the Moon is Illuminated
Oct 21
Waning Gibbous
Oct 26
Last Quarter
Nov 3
New
Nov 9
First Quarter
Nov 17
Full

Hourly Weather History & Observations

Time (PDT) Temp. Dew Point Humidity Pressure Visibility Wind Dir Wind Speed Gust Speed Precip Events Conditions
12:15 AM 51.8 °F 42.8 °F 71% 29.92 in 10.0 mi Calm Calm - N/A   Clear
12:35 AM 51.8 °F 46.4 °F 82% 29.92 in 10.0 mi Calm Calm - N/A   Clear
12:55 AM 50.0 °F 46.4 °F 87% 29.92 in 10.0 mi South 5.8 mph - N/A   Clear
1:15 AM 48.2 °F 46.4 °F 93% 29.93 in 10.0 mi SE 4.6 mph - N/A   Clear
1:35 AM 50.0 °F 44.6 °F 82% 29.93 in 10.0 mi SSE 3.5 mph - N/A   Clear
1:55 AM 51.8 °F 44.6 °F 76% 29.93 in 10.0 mi Calm Calm - N/A   Clear
2:15 AM 50.0 °F 42.8 °F 76% 29.93 in 10.0 mi Calm Calm - N/A   Clear
2:35 AM 51.8 °F 39.2 °F 62% 29.93 in 10.0 mi Calm Calm - N/A   Clear
2:55 AM 50.0 °F 39.2 °F 66% 29.93 in 10.0 mi SSE 4.6 mph - N/A   Clear
3:15 AM 51.8 °F 37.4 °F 58% 29.93 in 10.0 mi SSE 3.5 mph - N/A   Clear
3:35 AM 51.8 °F 37.4 °F 58% 29.93 in 10.0 mi SSW 4.6 mph - N/A   Clear
3:55 AM 48.2 °F 37.4 °F 66% 29.93 in 10.0 mi South 3.5 mph - N/A   Clear
4:15 AM 48.2 °F 37.4 °F 66% 29.93 in 10.0 mi Calm Calm - N/A   Clear
4:35 AM 48.2 °F 37.4 °F 66% 29.93 in 10.0 mi Calm Calm - N/A   Clear
4:55 AM 48.2 °F 37.4 °F 66% 29.93 in 10.0 mi Calm Calm - N/A   Clear
5:15 AM 48.2 °F 39.2 °F 71% 29.93 in 10.0 mi Calm Calm - N/A   Clear
5:35 AM 48.2 °F 39.2 °F 71% 29.94 in 10.0 mi Calm Calm - N/A   Clear
5:55 AM 46.4 °F 37.4 °F 71% 29.94 in 10.0 mi Calm Calm - N/A   Clear
6:15 AM 46.4 °F 37.4 °F 71% 29.95 in 10.0 mi Calm Calm - N/A   Clear
6:35 AM 44.6 °F 37.4 °F 76% 29.95 in 10.0 mi North - - N/A   Clear
6:45 AM 46.4 °F 39.2 °F 76% 29.95 in 10.0 mi Calm Calm - N/A   Clear
6:55 AM 46.4 °F 39.2 °F 76% 29.95 in 10.0 mi North - - N/A   Clear
7:45 AM 46.4 °F 41.0 °F 81% 29.96 in 10.0 mi Calm Calm - N/A   Clear
8:45 AM 57.2 °F 41.0 °F 55% 29.98 in 10.0 mi Calm Calm - N/A   Clear
9:45 AM 64.4 °F 35.6 °F 34% 29.99 in 10.0 mi Calm Calm - N/A   Clear
10:45 AM 71.6 °F 35.6 °F 27% 29.98 in 7.0 mi Calm Calm - N/A   Clear
11:45 AM 77.0 °F 37.4 °F 24% 29.97 in 7.0 mi Calm Calm - N/A   Clear
12:55 PM 80.6 °F 37.4 °F 21% 29.95 in 7.0 mi Calm Calm - N/A   Clear
1:45 PM 82.4 °F 37.4 °F 20% 29.93 in 7.0 mi Calm Calm - N/A   Clear
2:45 PM 84.2 °F 35.6 °F 18% 29.91 in 7.0 mi Calm Calm - N/A   Clear
3:45 PM 86.0 °F 39.2 °F 19% 29.90 in 7.0 mi NNE 5.8 mph - N/A   Clear
4:45 PM 84.2 °F 37.4 °F 19% 29.89 in 7.0 mi NNW 5.8 mph - N/A   Clear
5:45 PM 78.8 °F 39.2 °F 24% 29.89 in 7.0 mi North 5.8 mph - N/A   Clear
6:45 PM 69.8 °F 44.6 °F 40% 29.90 in 10.0 mi NW 6.9 mph - N/A   Clear
7:45 PM 64.4 °F 44.6 °F 49% 29.91 in 10.0 mi NW 6.9 mph - N/A   Clear
8:45 PM 60.8 °F 44.6 °F 55% 29.92 in 10.0 mi NW 6.9 mph - N/A   Clear
9:15 PM 57.2 °F 46.4 °F 67% 29.93 in 10.0 mi NNE 3.5 mph - N/A   Clear
9:35 PM 55.4 °F 46.4 °F 72% 29.94 in 7.0 mi ENE 3.5 mph - N/A   Clear
9:55 PM 55.4 °F 44.6 °F 67% 29.95 in 6.0 mi NE 3.5 mph - N/A   Clear
10:15 PM 55.4 °F 46.4 °F 72% 29.95 in 10.0 mi Calm Calm - N/A   Clear
10:35 PM 57.2 °F 46.4 °F 67% 29.95 in 10.0 mi Calm Calm - N/A   Clear
10:55 PM 55.4 °F 46.4 °F 72% 29.95 in 10.0 mi North - - N/A   Clear
11:15 PM 55.4 °F 44.6 °F 67% 29.96 in 10.0 mi North - - N/A   Clear
11:35 PM 53.6 °F 44.6 °F 72% 29.96 in 10.0 mi North - - N/A   Clear
11:55 PM 55.4 °F 46.4 °F 72% 29.95 in 10.0 mi North - - N/A   Clear